KTXEAGLE7 Weather Reports


Display with metric or nautical units.
time (UTC)temp
F
wind
direction
speed
MPH
gust
MPH
rain 1hr
in
rain 24hr
in
rain mn
in
humidity
%
barometer
mb
20260831224532 93 105 10.0 15.0 0.00 0.00 0.00 61 1013.7
20260831223034 93 128 7.0 10.0 0.00 0.00 0.00 57 1013.7
20260831221530 94 128 6.0 10.0 0.00 0.00 0.00 54 1013.7
20260831220030 95 90 5.0 10.0 0.00 0.00 0.00 51 1013.7
20260831214532 96 109 8.0 12.0 0.00 0.00 0.00 51 1013.9
20260831213037 96 128 5.0 11.0 0.00 0.00 0.00 51 1014.1
20260831211522 95 75 0.0 7.0 0.00 0.00 0.00 54 1014.2
20260831210019 95 56 1.0 3.0 0.00 0.00 0.00 56 1014.3
20260831204517 95 146 2.0 9.0 0.00 0.00 0.00 53 1014.5
20260831203018 95 69 5.0 9.0 0.00 0.00 0.00 53 1014.9
20260831201517 95 61 6.0 10.0 0.00 0.00 0.00 54 1015.1
20260831200010 94 92 3.0 10.0 0.00 0.00 0.00 56 1015.1
20260831194509 95 80 5.0 9.0 0.00 0.00 0.00 53 1015.4
20260831193011 94 74 5.0 12.0 0.00 0.00 0.00 56 1015.6
20260831191506 94 160 4.0 9.0 0.00 0.00 0.00 56 1015.8
20260831190003 94 151 5.0 10.0 0.00 0.00 0.00 57 1016.0
20260831184608 92 314 0.0 3.0 0.00 0.00 0.00 61 1016.4
20260831183058 92 163 3.0 9.0 0.00 0.00 0.00 63 1016.3
20260831181602 92 198 4.0 9.0 0.00 0.00 0.00 61 1016.6
20260831180056 92 203 4.0 9.0 0.00 0.00 0.00 61 1016.7
20260831174557 91 158 1.0 9.0 0.00 0.00 0.00 63 1016.7
20260831173054 91 130 3.0 9.0 0.00 0.00 0.00 64 1016.9
20260831171551 90 184 4.0 9.0 0.00 0.00 0.00 65 1017.0
20260831170049 88 224 2.0 8.0 0.00 0.00 0.00 72 1017.0
20260831164548 89 184 4.0 7.0 0.00 0.00 0.00 73 1017.1
20260831163048 88 55 0.0 5.0 0.00 0.00 0.00 75 1017.3
20260831161542 87 238 3.0 5.0 0.00 0.00 0.00 78 1017.4
20260831160058 86 349 3.0 5.0 0.00 0.00 0.00 78 1017.3
20260831154538 85 309 1.0 3.0 0.00 0.00 0.00 83 1017.2
20260831153117 85 327 2.0 4.0 0.00 0.00 0.00 82 1017.4
20260831151539 85 249 0.0 5.0 0.00 0.00 0.00 82 1017.3
20260831150036 85 96 2.0 4.0 0.00 0.00 0.00 88 1017.2
20260831144528 83 90 2.0 4.0 0.00 0.00 0.00 91 1017.2
20260831143024 81 101 1.0 8.0 0.00 0.00 0.00 95 1017.2
20260831141523 80 90 4.0 6.0 0.00 0.00 0.00 95 1017.0
20260831140018 79 51 3.0 6.0 0.00 0.00 0.00 96 1017.0
20260831134515 78 82 2.0 6.0 0.00 0.00 0.00 97 1016.9
20260831133014 78 56 2.0 5.0 0.00 0.00 0.00 98 1016.7
20260831131512 76 44 2.0 4.0 0.00 0.00 0.00 98 1016.5
20260831130007 76 53 0.0 0.0 0.00 0.00 0.00 99 1016.3
20260831124507 75 74 0.0 1.0 0.00 0.00 0.00 99 1016.1
20260831123007 75 74 1.0 3.0 0.00 0.00 0.00 99 1016.0
20260831121519 74 74 0.0 0.0 0.00 0.00 0.00 99 1015.8
20260831120016 74 74 0.0 3.0 0.00 0.00 0.00 98 1015.7
20260831114505 74 74 1.0 4.0 0.00 0.00 0.00 98 1015.8
20260831113005 74 60 1.0 5.0 0.00 0.00 0.00 98 1015.9
20260831111502 75 70 0.0 4.0 0.00 0.00 0.00 98 1015.7
20260831110100 75 5 0.0 0.0 0.00 0.00 0.00 98 1015.7
20260831104600 75 57 0.0 4.0 0.00 0.00 0.00 98 1015.8
20260831103101 76 277 0.0 1.0 0.00 0.00 0.00 99 1015.7
20260831101610 76 277 0.0 0.0 0.00 0.00 0.00 98 1015.6
20260831100055 76 277 0.0 0.0 0.00 0.00 0.00 99 1015.7
20260831094606 75 273 0.0 0.0 0.00 0.00 0.00 98 1015.6
20260831093054 75 193 0.0 0.0 0.00 0.00 0.00 98 1015.4
20260831091559 75 105 0.0 0.0 0.00 0.00 0.00 98 1015.4
20260831090052 75 105 0.0 0.0 0.00 0.00 0.00 98 1015.4
20260831084554 75 105 0.0 0.0 0.00 0.00 0.00 98 1015.6
20260831083055 75 105 0.0 0.0 0.00 0.00 0.00 98 1015.7
20260831081557 75 105 0.0 0.0 0.00 0.00 0.00 97 1015.5
20260831080050 75 105 0.0 0.0 0.00 0.00 0.00 97 1015.7
20260831074548 75 105 0.0 0.0 0.00 0.00 0.00 97 1015.7
20260831073047 75 105 0.0 0.0 0.00 0.00 0.00 96 1015.8
20260831071544 76 105 0.0 0.0 0.00 0.00 0.00 96 1016.0
20260831070107 76 105 0.0 0.0 0.00 0.00 0.00 96 1016.1
20260831064542 76 105 0.0 0.0 0.00 0.00 0.00 96 1016.1
20260831063041 76 105 0.0 0.0 0.00 0.00 0.00 95 1016.1
20260831061540 76 105 0.0 0.0 0.00 0.00 0.00 95 1016.2
20260831060047 76 180 0.0 0.0 0.00 0.00 0.00 95 1016.1
20260831054537 76 180 0.0 0.0 0.00 0.00 0.00 95 1016.2
20260831053037 76 180 0.0 3.0 0.00 0.00 0.00 95 1016.1
20260831051549 77 180 1.0 3.0 0.00 0.00 0.00 94 1016.0
20260831050036 77 180 2.0 3.0 0.00 0.00 0.00 94 1015.9
20260831044535 77 180 2.0 4.0 0.00 0.00 0.00 93 1016.0
20260831043034 77 148 0.0 2.0 0.00 0.00 0.00 93 1015.8
20260831041535 78 148 1.0 2.0 0.00 0.00 0.00 92 1015.8
20260831040043 78 148 0.0 2.0 0.00 0.00 0.00 92 1015.8
20260831034530 78 148 0.0 3.0 0.00 0.00 0.00 91 1015.8
20260831033032 79 148 1.0 3.0 0.00 0.00 0.00 90 1015.6
20260831031530 79 148 2.0 5.0 0.00 0.00 0.00 89 1015.6
20260831030030 79 155 2.0 5.0 0.00 0.00 0.00 88 1015.2
20260831024529 80 155 2.0 4.0 0.00 0.00 0.00 86 1015.1
20260831023037 81 151 5.0 8.0 0.00 0.00 0.00 84 1014.8
20260831021547 81 140 4.0 8.0 0.00 0.00 0.00 83 1014.7
20260831020028 82 138 7.0 10.0 0.00 0.00 0.00 81 1014.4
20260831014527 83 144 4.0 9.0 0.00 0.00 0.00 81 1014.2
20260831013027 84 152 5.0 8.0 0.00 0.00 0.00 79 1014.0
20260831011527 85 153 6.0 11.0 0.00 0.00 0.00 76 1014.0
20260831010041 85 168 7.0 11.0 0.00 0.00 0.00 76 1014.0
20260831004525 86 145 4.0 8.0 0.00 0.00 0.00 74 1013.9
20260831003025 88 141 7.0 11.0 0.00 0.00 0.00 69 1013.6
20260831001534 89 132 7.0 13.0 0.00 0.00 0.00 67 1013.6
20260831000024 90 129 10.0 16.0 0.00 0.00 0.00 64 1013.5
20260830234523 91 144 8.0 15.0 0.00 0.00 0.00 66 1013.5
20260830233023 92 155 12.0 18.0 0.00 0.00 0.00 62 1013.5
20260830231528 90 150 6.0 10.0 0.00 0.00 0.00 69 1013.5
20260830230021 88 173 3.0 6.0 0.00 0.00 0.00 72 1013.5